Weather History for Siloam Springs, AR

Change the Weather History Date:

Tuesday, March 5, 2013

  Actual Average Record
Temperature  
Mean Temperature 38 °F -  
Max Temperature 46 °F 50 °F 73 °F (2009)
Min Temperature 30 °F 31 °F 23 °F (2003)
Degree Days  
Heating Degree Days 27    
Moisture  
Dew Point 22 °F    
Average Humidity 54    
Maximum Humidity 81    
Minimum Humidity 34    
Precipitation  
Precipitation 0.10 in - - ()
Sea Level Pressure  
Sea Level Pressure 30.20 in    
Wind  
Wind Speed 18 mph (NW)    
Max Wind Speed 25 mph    
Max Gust Speed 33 mph    
Visibility 10 miles    
Events      
Averages and records for this station are not official NWS values.
T = Trace of Precipitation, MM = Missing Value Source: NWS Daily Summary

Daily Weather History Graph

Daily Weather History Graph

Search for Another Location

Airport:

Trip Planner

Search our weather history database for the weather conditions in past years. The results will help you decide how hot, cold, wet, or windy it might be!

Date:

Astronomy

Mar. 05, 2013 Rise Set
Actual Time 6:42 AM CST 6:16 PM CST
Civil Twilight 6:16 AM CST 6:42 PM CST
Nautical Twilight 5:47 AM CST 7:12 PM CST
Astronomical Twilight 5:17 AM CST 7:42 PM CST
Moon 1:47 AM CST (3/5) 12:04 PM CST (3/5)
Length of Visible Light 12h 25m
Length of Day
11h 34m
Last Quarter, 40% of the Moon is Illuminated
Mar 5
Last Quarter
Mar 11
New
Mar 19
First Quarter
Mar 27
Full
Apr 2
Last Quarter

Hourly Weather History & Observations

Time (CST) Temp. Windchill Dew Point Humidity Pressure Visibility Wind Dir Wind Speed Gust Speed Precip Events Conditions
12:15 AM 42.8 °F 36.2 °F 30.2 °F 61% 29.91 in 10.0 mi NNW 12.7 mph - N/A   Clear
1:35 AM 41.0 °F 32.2 °F 28.4 °F 61% 29.96 in 10.0 mi NNW 18.4 mph 24.2 mph N/A   Partly Cloudy
1:55 AM 41.0 °F 32.2 °F 28.4 °F 61% 29.98 in 10.0 mi NNW 18.4 mph 21.9 mph N/A   Mostly Cloudy
2:15 AM 41.0 °F 31.6 °F 30.2 °F 65% 30.00 in 10.0 mi NW 20.7 mph 29.9 mph N/A   Overcast
2:35 AM 39.2 °F 29.8 °F 30.2 °F 70% 30.01 in 5.0 mi NW 18.4 mph 31.1 mph 0.02 in   Overcast
2:55 AM 37.4 °F 27.5 °F 30.2 °F 75% 30.01 in 7.0 mi NW 18.4 mph 27.6 mph 0.03 in   Overcast
3:15 AM 37.4 °F 27.8 °F 30.2 °F 75% 30.03 in 5.0 mi NW 17.3 mph - N/A   Overcast
3:35 AM 37.4 °F 26.4 °F 30.2 °F 75% 30.03 in 5.0 mi NW 23.0 mph 29.9 mph 0.02 in   Overcast
3:55 AM 37.4 °F 26.4 °F 30.2 °F 75% 30.04 in 5.0 mi NNW 23.0 mph 33.4 mph 0.04 in   Overcast
4:15 AM 35.6 °F 25.2 °F 30.2 °F 81% 30.05 in 7.0 mi NW 18.4 mph 23.0 mph 0.02 in   Overcast
4:35 AM 35.6 °F 24.8 °F 28.4 °F 75% 30.05 in 10.0 mi NNW 19.6 mph 28.8 mph 0.03 in   Overcast
4:55 AM 35.6 °F 25.5 °F 28.4 °F 75% 30.06 in 10.0 mi NNW 17.3 mph - 0.03 in   Overcast
5:15 AM 35.6 °F 25.5 °F 28.4 °F 75% 30.09 in 10.0 mi NW 17.3 mph 24.2 mph N/A   Overcast
5:35 AM 35.6 °F 25.2 °F 28.4 °F 75% 30.09 in 10.0 mi NNW 18.4 mph 24.2 mph N/A   Overcast
5:55 AM 35.6 °F 25.9 °F 28.4 °F 75% 30.10 in 10.0 mi NW 16.1 mph 21.9 mph N/A   Overcast
6:15 AM 35.6 °F 25.9 °F 28.4 °F 75% 30.12 in 10.0 mi NW 16.1 mph 20.7 mph N/A   Overcast
6:35 AM 35.6 °F 25.2 °F 28.4 °F 75% 30.12 in 10.0 mi NNW 18.4 mph 25.3 mph N/A   Overcast
7:35 AM 35.6 °F 25.2 °F 26.6 °F 70% 30.14 in 10.0 mi NNW 18.4 mph 27.6 mph N/A   Overcast
7:55 AM 35.6 °F 24.5 °F 26.6 °F 70% 30.15 in 10.0 mi NW 20.7 mph 27.6 mph N/A   Overcast
8:15 AM 35.6 °F 24.8 °F 24.8 °F 65% 30.17 in 10.0 mi NW 19.6 mph 26.5 mph N/A   Mostly Cloudy
8:35 AM 35.6 °F 25.2 °F 24.8 °F 65% 30.18 in 10.0 mi NW 18.4 mph 28.8 mph N/A   Mostly Cloudy
8:55 AM 35.6 °F 23.7 °F 21.2 °F 56% 30.19 in 10.0 mi NW 24.2 mph 31.1 mph N/A   Scattered Clouds
9:15 AM 35.6 °F 25.2 °F 21.2 °F 56% 30.22 in 10.0 mi WNW 18.4 mph 26.5 mph N/A   Partly Cloudy
9:35 AM 35.6 °F 23.7 °F 19.4 °F 52% 30.22 in 10.0 mi WNW 24.2 mph 31.1 mph N/A   Clear
9:55 AM 35.6 °F 24.2 °F 19.4 °F 52% 30.23 in 10.0 mi WNW 21.9 mph - N/A   Clear
10:15 AM 35.6 °F 23.4 °F 17.6 °F 48% 30.24 in 10.0 mi NW 25.3 mph 32.2 mph N/A   Clear
10:35 AM 37.4 °F 26.9 °F 17.6 °F 45% 30.24 in 10.0 mi NW 20.7 mph 32.2 mph N/A   Clear
10:55 AM 37.4 °F 26.6 °F 17.6 °F 45% 30.25 in 10.0 mi WNW 21.9 mph 32.2 mph N/A   Clear
11:15 AM 37.4 °F 27.2 °F 17.6 °F 45% 30.25 in 10.0 mi WNW 19.6 mph 27.6 mph N/A   Clear
11:35 AM 39.2 °F 29.6 °F 17.6 °F 42% 30.25 in 10.0 mi NW 19.6 mph 29.9 mph N/A   Clear
11:55 AM 39.2 °F 29.6 °F 17.6 °F 42% 30.25 in 10.0 mi NW 19.6 mph - N/A   Clear
12:15 PM 39.2 °F 29.8 °F 19.4 °F 45% 30.25 in 10.0 mi NW 18.4 mph 29.9 mph N/A   Clear
12:35 PM 41.0 °F 31.6 °F 19.4 °F 42% 30.25 in 10.0 mi WNW 20.7 mph 28.8 mph N/A   Clear
12:55 PM 41.0 °F 31.9 °F 19.4 °F 42% 30.24 in 10.0 mi NW 19.6 mph 29.9 mph N/A   Clear
1:15 PM 42.8 °F 33.5 °F 19.4 °F 39% 30.24 in 10.0 mi WNW 23.0 mph 28.8 mph N/A   Clear
1:35 PM 42.8 °F 33.5 °F 19.4 °F 39% 30.23 in 10.0 mi WNW 23.0 mph 29.9 mph N/A   Clear
1:55 PM 44.6 °F 36.4 °F 21.2 °F 39% 30.23 in 10.0 mi WNW 20.7 mph 27.6 mph N/A   Clear
2:15 PM 44.6 °F 37.4 °F 21.2 °F 39% 30.23 in 10.0 mi WNW 16.1 mph 25.3 mph N/A   Clear
2:35 PM 44.6 °F 36.4 °F 19.4 °F 37% 30.23 in 10.0 mi NW 20.7 mph 24.2 mph N/A   Clear
2:55 PM 44.6 °F 36.6 °F 19.4 °F 37% 30.22 in 10.0 mi NW 19.6 mph 29.9 mph N/A   Clear
3:15 PM 44.6 °F 36.4 °F 21.2 °F 39% 30.22 in 10.0 mi NW 20.7 mph 29.9 mph N/A   Clear
3:35 PM 46.4 °F 38.7 °F 19.4 °F 34% 30.23 in 10.0 mi WNW 20.7 mph 29.9 mph N/A   Clear
3:55 PM 46.4 °F 39.0 °F 19.4 °F 34% 30.23 in 10.0 mi NW 19.6 mph 26.5 mph N/A   Clear
4:15 PM 44.6 °F 37.2 °F 19.4 °F 37% 30.23 in 10.0 mi NW 17.3 mph 25.3 mph N/A   Clear
4:35 PM 44.6 °F 36.1 °F 19.4 °F 37% 30.24 in 10.0 mi NW 21.9 mph 29.9 mph N/A   Clear
4:55 PM 44.6 °F 36.6 °F 19.4 °F 37% 30.24 in 10.0 mi NW 19.6 mph 29.9 mph N/A   Clear
5:15 PM 44.6 °F 37.4 °F 19.4 °F 37% 30.24 in 10.0 mi WNW 16.1 mph 20.7 mph N/A   Clear
5:35 PM 42.8 °F 33.8 °F 19.4 °F 39% 30.24 in 10.0 mi WNW 21.9 mph 26.5 mph N/A   Clear
5:55 PM 42.8 °F 35.1 °F 19.4 °F 39% 30.24 in 10.0 mi NW 16.1 mph - N/A   Clear
6:15 PM 39.2 °F 30.8 °F 19.4 °F 45% 30.25 in 10.0 mi NW 15.0 mph - N/A   Clear
6:35 PM 39.2 °F 32.0 °F 19.4 °F 45% 30.25 in 10.0 mi NW 11.5 mph 19.6 mph N/A   Clear
6:55 PM 37.4 °F 28.2 °F 19.4 °F 48% 30.26 in 10.0 mi NW 16.1 mph 21.9 mph N/A   Clear
7:15 PM 37.4 °F 29.8 °F 19.4 °F 48% 30.26 in 10.0 mi NW 11.5 mph 18.4 mph N/A   Clear
7:35 PM 37.4 °F 29.8 °F 19.4 °F 48% 30.26 in 10.0 mi NW 11.5 mph - N/A   Clear
7:55 PM 35.6 °F 28.0 °F 19.4 °F 52% 30.28 in 10.0 mi NW 10.4 mph - N/A   Clear
8:15 PM 35.6 °F 27.1 °F 19.4 °F 52% 30.28 in 10.0 mi NW 12.7 mph - N/A   Clear
8:35 PM 35.6 °F 27.5 °F 19.4 °F 52% 30.29 in 10.0 mi NW 11.5 mph - N/A   Clear
8:55 PM 35.6 °F 27.1 °F 19.4 °F 52% 30.30 in 10.0 mi NNW 12.7 mph 16.1 mph N/A   Clear
9:15 PM 35.6 °F 28.0 °F 19.4 °F 52% 30.30 in 10.0 mi NNW 10.4 mph - N/A   Clear
9:35 PM 33.8 °F 25.3 °F 19.4 °F 56% 30.31 in 10.0 mi NNW 11.5 mph - N/A   Clear
9:55 PM 33.8 °F 23.9 °F 19.4 °F 56% 30.32 in 10.0 mi NNW 15.0 mph - N/A   Clear
10:15 PM 33.8 °F 25.8 °F 19.4 °F 56% 30.32 in 10.0 mi NNW 10.4 mph - N/A   Clear
10:35 PM 32.0 °F 20.8 °F 17.6 °F 55% 30.33 in 10.0 mi NNW 17.3 mph 23.0 mph N/A   Clear
10:55 PM 32.0 °F 23.0 °F 17.6 °F 55% 30.33 in 10.0 mi NNW 11.5 mph - N/A   Clear
11:15 PM 30.2 °F 21.9 °F 17.6 °F 60% 30.33 in 10.0 mi NNW 9.2 mph - N/A   Clear
11:35 PM 30.2 °F 21.3 °F 17.6 °F 60% 30.33 in 10.0 mi NNW 10.4 mph - N/A   Clear
11:55 PM 30.2 °F 20.8 °F 17.6 °F 60% 30.33 in 10.0 mi NNW 11.5 mph - N/A   Clear